Jacksonville, FL

4:34 AM EDT on September 29, 2016 (GMT -0400)
Jacksonville Naval Air Station

Weather History for KNIP - February, 2013

Change the Weather History Date:

Wednesday, February 27, 2013

  Actual Average Record
Temperature  
Mean Temperature 62 °F -  
Max Temperature 69 °F 68 °F 84 °F (1997)
Min Temperature 54 °F 51 °F 37 °F (2002)
Degree Days  
Heating Degree Days 4    
Growing Degree Days 12 (Base 50)    
Moisture  
Dew Point 44 °F    
Average Humidity 58    
Maximum Humidity 78    
Minimum Humidity 33    
Precipitation  
Precipitation 0.00 in - - ()
Sea Level Pressure  
Sea Level Pressure 29.91 in    
Wind  
Wind Speed 8 mph (West)    
Max Wind Speed 15 mph    
Max Gust Speed -    
Visibility 10 miles    
Events      
Averages and records for this station are not official NWS values.
T = Trace of Precipitation, MM = Missing Value Source: NWS Daily Summary

Daily Weather History Graph

Daily Weather History Graph

Search for Another Location

Airport or City:

Trip Planner

Search our weather history database for the weather conditions in past years. The results will help you decide how hot, cold, wet, or windy it might be!

Date:

Astronomy

Feb. 27, 2013 Rise Set
Actual Time 6:54 AM EST 6:24 PM EST
Civil Twilight 6:30 AM EST 6:48 PM EST
Nautical Twilight 6:02 AM EST 7:16 PM EST
Astronomical Twilight 5:34 AM EST 7:44 PM EST
Moon 8:29 PM EST (2/27) 7:41 AM EST (2/27)
Length of Visible Light 12h 17m
Length of Day
11h 29m
Waning Gibbous, 96% of the Moon is Illuminated
Feb 27
Waning Gibbous
Mar 4
Last Quarter
Mar 11
New
Mar 19
First Quarter
Mar 27
Full

Hourly Weather History & Observations

Time (EST) Temp. Dew Point Humidity Pressure Visibility Wind Dir Wind Speed Gust Speed Precip Events Conditions
12:53 AM 59.0 °F 52.0 °F 78% 29.85 in 10.0 mi West 11.5 mph - N/A   Scattered Clouds
1:53 AM 57.9 °F 51.1 °F 78% 29.86 in 10.0 mi West 9.2 mph - N/A   Partly Cloudy
2:53 AM 57.0 °F 48.9 °F 74% 29.84 in 10.0 mi WNW 15.0 mph - N/A   Scattered Clouds
3:53 AM 57.0 °F 48.0 °F 72% 29.86 in 10.0 mi West 10.4 mph - N/A   Mostly Cloudy
4:53 AM 55.9 °F 46.9 °F 72% 29.88 in 10.0 mi WNW 6.9 mph - N/A   Mostly Cloudy
5:53 AM 55.0 °F 46.9 °F 74% 29.90 in 10.0 mi West 4.6 mph - N/A   Mostly Cloudy
6:53 AM 54.0 °F 46.9 °F 77% 29.92 in 10.0 mi Calm Calm - N/A   Mostly Cloudy
7:53 AM 54.0 °F 46.9 °F 77% 29.94 in 10.0 mi West 4.6 mph - N/A   Mostly Cloudy
8:53 AM 54.0 °F 46.0 °F 75% 29.97 in 10.0 mi WNW 5.8 mph - N/A   Mostly Cloudy
9:53 AM 55.0 °F 46.0 °F 72% 29.98 in 10.0 mi NW 6.9 mph - N/A   Mostly Cloudy
10:53 AM 59.0 °F 42.1 °F 53% 29.98 in 10.0 mi West 8.1 mph - N/A   Mostly Cloudy
11:53 AM 61.0 °F 42.1 °F 50% 29.96 in 10.0 mi West 3.5 mph - N/A   Mostly Cloudy
12:53 PM 63.0 °F 43.0 °F 48% 29.94 in 10.0 mi WNW 4.6 mph - N/A   Mostly Cloudy
1:53 PM 66.9 °F 39.9 °F 37% 29.91 in 10.0 mi West 8.1 mph - N/A   Scattered Clouds
2:53 PM 69.1 °F 39.0 °F 33% 29.90 in 10.0 mi WSW 8.1 mph - N/A   Mostly Cloudy
3:53 PM 69.1 °F 39.9 °F 35% 29.88 in 10.0 mi West 6.9 mph - N/A   Mostly Cloudy
4:53 PM 69.1 °F 39.9 °F 35% 29.88 in 10.0 mi West 11.5 mph - N/A   Overcast
5:53 PM 66.9 °F 39.9 °F 37% 29.89 in 10.0 mi West 8.1 mph - N/A   Overcast
6:53 PM 64.9 °F 41.0 °F 42% 29.90 in 10.0 mi West 5.8 mph - N/A   Overcast
7:53 PM 64.0 °F 41.0 °F 43% 29.91 in 10.0 mi West 3.5 mph - N/A   Overcast
8:53 PM 62.1 °F 42.1 °F 48% 29.93 in 10.0 mi NW 9.2 mph - N/A   Mostly Cloudy
9:53 PM 59.0 °F 42.1 °F 53% 29.95 in 10.0 mi WNW 6.9 mph - N/A   Mostly Cloudy
10:53 PM 57.9 °F 42.1 °F 56% 29.95 in 10.0 mi West 8.1 mph - N/A   Mostly Cloudy
11:53 PM 55.9 °F 44.1 °F 64% 29.94 in 10.0 mi WSW 6.9 mph - N/A   Mostly Cloudy